Tracking 19484 objects as of 19-Jan-2019
HD Live streaming from Space Station
objects crossing your sky now

COSMOS 1758

Track COSMOS 1758 now!
10-day predictions
COSMOS 1758 is classified as:


NORAD ID: 16791
Int'l Code: 1986-046A
Perigee: 548.9 km
Apogee: 569.6 km
Inclination: 82.5 °
Period: 95.7 minutes
Semi major axis: 6930 km
RCS: 7.362 m2 (large)
Launch date: June 12, 1986
Source: Commonwealth of Independent States (former USSR) (CIS)
Launch site: PLESETSK MISSILE AND SPACE COMPLEX (PKMTR)
aabbcc
Your satellite tracking list
Your tracking list is empty




NASA's NSSDC Master Catalog

Two Line Element Set (TLE):
1 16791U 86046A   19018.03991964 -.00000154  00000-0 -12930-4 0  9999
2 16791  82.4696 186.9305 0014948 274.9057  85.0463 15.04811165772872
Source of the keplerian elements: AFSPC